Location: M?digepalle
(16.1753°N, 80.3496°E)
Time: 08:11:42
(UTC+00:00)

SL-27 R/B - Pass Details

Date: 29 October 2020
Orbit: 419 x 469 km, 74.7° (Epoch: 27 November)

Event Time Altitude Azimuth Distance (km) Brightness Sun altitude
Rises 23:22:42 0° 184° (S) 2,463 6.2 -17.8°
Reaches altitude 10° 23:24:48 10° 179° (S) 1,598 5.3 -17.3°
Maximum altitude 23:28:15 54° 101° (ESE) 570 3.3 -16.5°
Drops below altitude 10° 23:31:44 10° 24° (NNE) 1,619 5.4 -15.7°
Sets 23:33:53 0° 19° (NNE) 2,499 6.3 -15.2°
